Flag for France Weather past 2 weeks in Paris, France

Now
59 °F

Overcast.


Feels Like: 59 °F
Forecast: 58 / 75 °F
Wind: 5 mph from North

Location: Villacoublay

Current Time: Sep 2, 2014 at 6:53:42 AM

Latest Report: Sep 2, 2014 at 6:30 AM


Visibility: N/A

Pressure: 30.15 "Hg

Humidity: 88%

Dew point: 55 °F

Location of ParisLocation

Historic Weather in Paris — Graph

°F

Paris temperature yesterday

Maximum temperature yesterday: 72 °F (at 3:00 PM)
Minimum temperature yesterday: 50 °F (at 6:00 AM)
Average temperature yesterday: 62 °F

Past Weeks' High & Low Weather Summary

 TemperatureHumidityPressure
High72 °F (Aug 26, 5:00 PM)100% (Aug 23, 6:00 AM)30.21 "Hg (Aug 23, 6:00 AM)
Low46 °F (Aug 21, 3:30 AM)40% (Aug 21, 3:30 PM)29.68 "Hg (Aug 25, 10:30 PM)
Average60 °F74%30.01 "Hg
* Reported Aug 18 6:00 AM — Sep 2 6:00 AM, Paris, Weather by CustomWeather, © 2014

Note: Actual official high and low records may vary slightly from our data, if they occured in-between our weather recording intervals... More about our weather records

Advertising

Paris weather history for previous 24 hours

 ConditionsComfort  
Time TempWeatherWind HumidityBarometerVisibility
6:00 AM
Sep 2
61 °FOvercast.5 mph83%30.15 "HgN/A
5:30 AM61 °FOvercast.3 mph83%30.15 "HgN/A
5:00 AM59 °FOvercast.5 mph88%30.15 "HgN/A
4:30 AM61 °FPartly cloudy.7 mph83%30.15 "HgN/A
4:00 AM61 °FClear.6 mph83%30.15 "HgN/A
3:30 AM61 °FClear.3 mph83%30.15 "HgN/A
3:00 AM61 °FClear.3 mph83%30.15 "HgN/A
2:30 AM63 °FClear.5 mph77%30.15 "HgN/A
2:00 AM63 °FClear.5 mph77%30.15 "HgN/A
1:30 AM63 °FClear.3 mph73%30.15 "HgN/A
1:00 AM63 °FOvercast.6 mph73%30.15 "HgN/A
12:30 AM63 °FMostly cloudy.6 mph73%30.15 "HgN/A
12:00 AM64 °FOvercast.2 mph68%30.15 "HgN/A
11:30 PM
Sep 1
64 °FPassing clouds.2 mph64%30.15 "HgN/A
11:00 PM66 °FPassing clouds.No wind60%30.15 "HgN/A
10:30 PM66 °FMostly cloudy.2 mph60%30.15 "HgN/A
10:00 PM64 °FClear.2 mph64%30.15 "HgN/A
9:30 PM64 °FClear.2 mph64%30.15 "HgN/A
9:00 PM68 °FClear.2 mph56%30.15 "HgN/A
8:30 PM68 °FClear.2 mph56%30.15 "HgN/A
8:00 PM68 °FClear.3 mph56%30.15 "HgN/A
7:30 PM70 °FMostly cloudy.2 mph53%30.15 "HgN/A
7:00 PM70 °FPartly sunny.3 mph50%30.15 "HgN/A
6:30 PM70 °FPartly sunny.5 mph50%30.15 "HgN/A
6:00 PM72 °FPartly sunny.2 mph47%30.15 "HgN/A
5:30 PM70 °FPartly sunny.2 mph50%30.15 "HgN/A
5:00 PM70 °FPartly sunny.6 mph53%30.15 "HgN/A
4:30 PM72 °FPartly sunny.3 mph47%30.15 "HgN/A
4:00 PM70 °FPartly sunny.1 mph50%30.18 "HgN/A
3:30 PM70 °FOvercast.3 mph50%30.18 "HgN/A
3:00 PM72 °FPartly sunny.2 mph50%30.18 "HgN/A
2:30 PM70 °FPartly sunny.3 mph53%30.18 "HgN/A
2:00 PM68 °FPartly sunny.3 mph56%30.18 "HgN/A
1:30 PM68 °FScattered clouds.2 mph60%30.18 "HgN/A
1:00 PM68 °FMostly cloudy.3 mph60%30.18 "HgN/A
12:30 PM66 °FBroken clouds.5 mph64%30.18 "HgN/A
12:00 PM68 °FScattered clouds.3 mph60%30.18 "HgN/A
11:30 AM66 °FClear.3 mph68%30.21 "HgN/A
11:00 AM64 °FPassing clouds.3 mph73%30.21 "HgN/A
10:30 AM63 °FClear.3 mph77%30.21 "HgN/A
10:00 AM63 °FClear.2 mph77%30.18 "HgN/A
9:30 AM59 °FClear.2 mph88%30.18 "HgN/A
9:00 AM57 °FClear.No wind94%30.18 "HgN/A
8:30 AM55 °FClear.2 mph94%30.18 "HgN/A
8:00 AM52 °FClear.1 mph100%30.18 "HgN/A
7:30 AM50 °FClear.3 mph94%30.18 "HgN/A
7:00 AM52 °FClear.No wind88%30.15 "HgN/A
6:30 AM52 °FClear.No wind94%30.15 "HgN/A
6:00 AM50 °FClear.No wind94%30.15 "HgN/A
Weather by CustomWeather, © 2014

See weather overviewHow to use our weather pages